Location: Keppel Henge
(44.7900°N, 80.9447°W)
Time: 17:31:45
(UTC-05:00)

Vanguard 1 - Visible Passes

Search period start: 16 December 2017 00:00
Search period end: 26 December 2017 00:00
Orbit: 650 x 3834 km, 34.2° (Epoch: 15 December)

Date Brightness Start Highest point End Pass type
(mag) Time Alt. Az. Time Alt. Az. Time Alt. Az.
16 Dec 14.4 06:39:45 10° SSW 06:58:04 31° SE 07:13:22 10° E visible
17 Dec 14.6 04:46:49 10° SSE 04:56:04 14° SE 05:05:05 10° ESE visible
17 Dec 14.2 06:59:10 10° SSW 07:19:00 37° SSE 07:35:07 10° E visible
18 Dec 14.4 05:02:50 10° S 05:16:36 20° SE 05:29:52 10° E visible
18 Dec 14.0 07:19:05 10° SW 07:40:00 43° SSE 07:56:36 10° E visible
19 Dec 14.3 05:20:46 10° S 05:37:13 26° SE 05:52:53 10° E visible
20 Dec 14.2 05:39:39 10° SSW 05:57:55 32° SE 06:15:07 10° E visible
21 Dec 14.4 03:47:05 10° SSE 03:56:18 14° SE 04:05:49 10° ESE visible
21 Dec 14.0 05:59:08 10° SSW 06:18:43 39° SE 06:36:56 10° E visible
22 Dec 14.2 04:03:23 10° S 04:16:38 20° SE 04:30:35 10° E visible
22 Dec 13.8 06:19:04 10° SW 06:39:37 45° SSE 06:58:28 10° E visible
23 Dec 14.1 04:21:29 10° S 04:37:03 26° SE 04:53:40 10° E visible
23 Dec 13.7 06:39:21 10° SW 07:00:38 50° SSE 07:19:51 10° E visible
24 Dec 13.9 04:40:27 10° SSW 04:57:34 33° SE 05:15:59 10° E visible
24 Dec 13.6 06:59:55 10° SW 07:21:47 55° SSE 07:41:06 10° E visible
25 Dec 14.1 02:48:38 10° SSE 02:56:36 14° ESE 03:05:16 10° E visible
25 Dec 13.8 04:59:59 10° SSW 05:18:13 39° SE 05:37:52 10° E visible
25 Dec 13.5 07:20:43 10° WSW 07:43:00 59° SSE 08:02:17 10° E visible
